Location: *
(34.8620°S, 39.3380°E)
Time: 05:58:59
(UTC+00:00)

CENTAUR R/B - Visible Passes

Search period start: 02 December 2021 00:00
Search period end: 12 December 2021 00:00
Orbit: 728 x 1459 km, 63.4° (Epoch: 26 November)

Date Brightness Start Highest point End Pass type
(mag) Time Alt. Az. Time Alt. Az. Time Alt. Az.
02 Dec 4.7 20:35:37 10° SSE 20:37:52 12° SE 20:40:02 10° ESE visible
02 Dec 2.7 22:23:58 10° SSW 22:27:57 49° SSW 22:27:57 49° SSW visible
03 Dec 3.1 21:35:52 10° SSW 21:40:30 41° SE 21:40:30 41° SE visible
03 Dec 4.3 23:27:30 10° WSW 23:27:37 10° WSW 23:27:37 10° WSW visible
04 Dec 3.8 20:48:04 10° S 20:52:30 24° SE 20:53:07 23° ESE visible
04 Dec 3.8 22:38:14 10° SW 22:40:16 21° WSW 22:40:16 21° WSW visible
05 Dec 4.4 20:00:50 10° S 20:03:41 14° SE 20:05:50 11° ESE visible
05 Dec 3.2 21:49:39 10° SSW 21:52:58 37° SW 21:52:58 37° SW visible
06 Dec 3.0 21:01:27 10° SSW 21:05:43 43° SSE 21:05:43 43° SSE visible
07 Dec 3.5 20:13:36 10° S 20:18:15 27° SE 20:18:33 27° SE visible
07 Dec 4.0 22:04:02 10° SW 22:05:41 18° WSW 22:05:41 18° WSW visible
08 Dec 4.2 19:26:11 10° S 19:29:29 16° SE 19:31:24 13° ESE visible
08 Dec 3.2 21:15:20 10° SW 21:18:33 35° SW 21:18:33 35° SW visible
09 Dec 2.7 20:27:04 10° SSW 20:31:27 49° SSE 20:31:27 49° SSE visible
10 Dec 3.2 19:39:07 10° SSW 19:43:59 31° SE 19:44:23 31° ESE visible
10 Dec 4.1 21:29:53 10° SW 21:31:32 18° WSW 21:31:32 18° WSW visible
11 Dec 4.0 18:51:34 10° S 18:55:17 18° SE 18:57:22 15° ESE visible
11 Dec 3.1 20:41:03 10° SW 20:44:31 38° WSW 20:44:31 38° WSW visible
